Silver City, NM

3:20 AM MST on December 09, 2019 (GMT -0700)
Grant County

Weather History for KSVC - November, 2019

Change the Weather History Date:

Wednesday, November 13, 2019

  Actual Average (KDMN) Record (KDMN)
Temperature  
Mean Temperature 44 °F -  
Max Temperature 63 °F 67 °F 80 °F (1984)
Min Temperature 24 °F 34 °F 17 °F (2018)
Degree Days  
Heating Degree Days 22    
Moisture  
Dew Point 26 °F    
Average Humidity 55    
Maximum Humidity 89    
Minimum Humidity 21    
Precipitation  
Precipitation 0.00 in - - ()
Sea Level Pressure  
Sea Level Pressure 30.12 in    
Wind  
Wind Speed 5 mph (NW)    
Max Wind Speed 15 mph    
Max Gust Speed -    
Visibility 10 miles    
Events      
Averages and records for this station are not official NWS values.
T = Trace of Precipitation, MM = Missing Value Source: NWS Daily Summary

Daily Weather History Graph

Daily Weather History Graph

Search for Another Location

Airport or City:

Astronomy

Nov. 13, 2019 Rise Set
Actual Time 6:40 AM MST 5:12 PM MST
Civil Twilight 6:14 AM MST 5:38 PM MST
Nautical Twilight 5:44 AM MST 6:08 PM MST
Astronomical Twilight 5:15 AM MST 6:37 PM MST
Moon 6:20 PM MST (11/13) 7:36 AM MST (11/13)
Length of Visible Light 11h 24m
Length of Day
10h 32m
Full, 98% of the Moon is Illuminated
Nov 13
Full
Nov 19
Last Quarter
Nov 26
New
Dec 3
First Quarter
Dec 11
Full

Hourly Weather History & Observations

Time (MST) Temp. Windchill Dew Point Humidity Pressure Visibility Wind Dir Wind Speed Gust Speed Precip Events Conditions
12:15 AM 30.0 °F 25.2 °F 23.9 °F 78% 30.21 in 10.0 mi North 4.6 mph - N/A   Clear
12:55 AM 28.8 °F 25.0 °F 23.0 °F 79% 30.21 in 10.0 mi WNW 3.5 mph - N/A   Clear
1:35 AM 29.3 °F 23.2 °F 23.5 °F 79% 30.19 in 10.0 mi NNW 5.8 mph - N/A   Clear
1:55 AM 28.9 °F - 23.4 °F 80% 30.19 in 10.0 mi Calm Calm - N/A   Clear
2:15 AM 27.1 °F - 22.5 °F 83% 30.18 in 10.0 mi Calm Calm - N/A   Clear
2:35 AM 27.3 °F 19.9 °F 23.4 °F 85% 30.17 in 10.0 mi North 6.9 mph - N/A   Clear
3:15 AM 30.9 °F 25.2 °F 23.0 °F 72% 30.16 in 10.0 mi ESE 5.8 mph - N/A   Clear
3:35 AM 27.3 °F 23.4 °F 21.9 °F 80% 30.16 in 10.0 mi North 3.5 mph - N/A   Clear
3:55 AM 25.3 °F 18.5 °F 21.7 °F 86% 30.15 in 10.0 mi NNW 5.8 mph - N/A   Clear
4:15 AM 25.2 °F 16.5 °F 22.3 °F 89% 30.15 in 10.0 mi North 8.1 mph - N/A   Clear
4:35 AM 27.3 °F 22.0 °F 23.2 °F 84% 30.15 in 10.0 mi NNE 4.6 mph - N/A   Clear
4:55 AM 26.6 °F - 22.6 °F 85% 30.15 in 10.0 mi Calm Calm - N/A   Clear
5:15 AM 24.4 °F - 21.2 °F 87% 30.15 in 10.0 mi Calm Calm - N/A   Clear
5:35 AM 24.6 °F - 21.2 °F 87% 30.15 in 10.0 mi Calm Calm - N/A   Clear
5:55 AM 24.4 °F 18.6 °F 21.2 °F 87% 30.15 in 10.0 mi NNW 4.6 mph - N/A   Clear
6:15 AM 28.8 °F - 23.2 °F 80% 30.15 in 10.0 mi Calm Calm - N/A   Clear
6:35 AM 27.3 °F - 22.5 °F 82% 30.15 in 10.0 mi Calm Calm - N/A   Clear
6:55 AM 26.1 °F 18.4 °F 22.5 °F 86% 30.15 in 10.0 mi North 6.9 mph - N/A   Clear
7:15 AM 29.5 °F 21.8 °F 25.5 °F 85% 30.14 in 10.0 mi NNW 8.1 mph - N/A   Clear
7:35 AM 32.4 °F 27.9 °F 27.5 °F 82% 30.15 in 10.0 mi North 4.6 mph - N/A   Clear
7:55 AM 37.0 °F 31.0 °F 28.2 °F 70% 30.15 in 10.0 mi NW 8.1 mph - N/A   Clear
8:15 AM 38.5 °F 36.1 °F 28.0 °F 66% 30.15 in 10.0 mi West 3.5 mph - N/A   Clear
8:35 AM 40.3 °F - 28.4 °F 63% 30.15 in 10.0 mi Calm Calm - N/A   Clear
8:55 AM 42.1 °F - 28.9 °F 60% 30.16 in 10.0 mi Calm Calm - N/A   Clear
9:15 AM 44.6 °F 43.1 °F 29.8 °F 56% 30.16 in 10.0 mi SW 3.5 mph - N/A   Clear
9:35 AM 45.5 °F 44.2 °F 29.3 °F 53% 30.16 in 10.0 mi South 3.5 mph - N/A   Clear
9:55 AM 46.8 °F - 28.9 °F 50% 30.16 in 10.0 mi SSE 4.6 mph - N/A   Clear
10:15 AM 46.6 °F - 27.3 °F 47% 30.16 in 10.0 mi SSE 4.6 mph - N/A   Clear
10:35 AM 49.1 °F - 28.0 °F 44% 30.16 in 10.0 mi SSW 4.6 mph - N/A   Clear
10:55 AM 49.3 °F - 28.0 °F 44% 30.15 in 10.0 mi SSE 5.8 mph - N/A   Clear
11:15 AM 51.1 °F - 28.4 °F 42% 30.14 in 10.0 mi South 3.5 mph - N/A   Scattered Clouds
11:35 AM 51.8 °F - 28.6 °F 41% 30.13 in 10.0 mi South 3.5 mph - N/A   Scattered Clouds
12:15 PM 54.9 °F - 29.3 °F 38% 30.11 in 10.0 mi South 3.5 mph - N/A   Overcast
12:35 PM 56.1 °F - 29.7 °F 36% 30.10 in 10.0 mi SSE 3.5 mph - N/A   Scattered Clouds
12:55 PM 57.6 °F - 30.7 °F 36% 30.08 in 10.0 mi South 5.8 mph - N/A   Clear
1:15 PM 59.2 °F - 31.3 °F 35% 30.07 in 10.0 mi South 5.8 mph - N/A   Clear
1:35 PM 60.4 °F - 31.3 °F 33% 30.06 in 10.0 mi SSE 5.8 mph - N/A   Clear
1:55 PM 61.9 °F - 30.6 °F 31% 30.06 in 10.0 mi SSE 5.8 mph - N/A   Clear
2:15 PM 62.6 °F - 30.0 °F 29% 30.05 in 10.0 mi SE 5.8 mph - N/A   Clear
2:35 PM 63.5 °F - 29.7 °F 28% 30.04 in 10.0 mi SE 6.9 mph - N/A   Clear
3:35 PM 63.7 °F - 30.7 °F 29% 30.03 in 10.0 mi SSE 5.8 mph - N/A   Clear
3:55 PM 63.5 °F - 30.0 °F 28% 30.03 in 10.0 mi Calm Calm - N/A   Clear
4:15 PM 63.5 °F - 22.8 °F 21% 30.04 in 10.0 mi WNW 8.1 mph - N/A   Clear
4:35 PM 62.6 °F - 23.0 °F 22% 30.04 in 10.0 mi WNW 6.9 mph - N/A   Clear
4:55 PM 60.6 °F - 25.0 °F 26% 30.04 in 10.0 mi WNW 6.9 mph - N/A   Clear
5:15 PM 57.6 °F - 25.3 °F 29% 30.04 in 10.0 mi West 9.2 mph - N/A   Clear
5:35 PM 54.1 °F - 25.2 °F 33% 30.04 in 10.0 mi WNW 11.5 mph - N/A   Clear
6:15 PM 52.2 °F - 24.8 °F 35% 30.06 in 10.0 mi NW 11.5 mph - N/A   Clear
6:35 PM 50.5 °F - 25.3 °F 38% 30.06 in 10.0 mi NW 10.4 mph - N/A   Clear
6:55 PM 51.1 °F - 25.7 °F 37% 30.06 in 10.0 mi NW 12.7 mph - N/A   Clear
7:15 PM 51.1 °F - 26.1 °F 38% 30.08 in 10.0 mi NW 13.8 mph - N/A   Clear
7:55 PM 48.6 °F - 26.2 °F 42% 30.08 in 10.0 mi NNW 6.9 mph - N/A   Clear
8:15 PM 47.3 °F - 25.7 °F 43% 30.08 in 10.0 mi NNW 8.1 mph - N/A   Clear
8:35 PM 48.4 °F - 26.1 °F 42% 30.10 in 10.0 mi NNW 11.5 mph - N/A   Clear
8:55 PM 48.6 °F - 25.7 °F 41% 30.10 in 10.0 mi NW 13.8 mph - N/A   Clear
9:15 PM 43.5 °F 37.5 °F 25.3 °F 49% 30.10 in 10.0 mi NNW 11.5 mph - N/A   Clear
9:35 PM 41.9 °F 35.4 °F 25.2 °F 52% 30.11 in 10.0 mi NNW 11.5 mph - N/A   Clear
9:55 PM 42.3 °F 36.3 °F 25.7 °F 52% 30.12 in 10.0 mi NNW 10.4 mph - N/A   Clear
10:15 PM 48.7 °F - 25.9 °F 41% 30.12 in 10.0 mi NNW 15.0 mph - N/A   Clear
10:35 PM 46.8 °F - 24.8 °F 42% 30.12 in 10.0 mi NNW 10.4 mph - N/A   Clear
10:55 PM 43.3 °F 36.8 °F 25.5 °F 49% 30.12 in 10.0 mi NNW 12.7 mph - N/A   Clear
11:15 PM 42.4 °F 35.7 °F 25.7 °F 52% 30.12 in 10.0 mi NNW 12.7 mph - N/A   Clear
11:35 PM 42.3 °F 34.8 °F 25.7 °F 52% 30.12 in 10.0 mi NNW 15.0 mph - N/A   Clear
11:55 PM 45.0 °F 39.3 °F 25.5 °F 47% 30.12 in 10.0 mi North 11.5 mph - N/A   Clear